Weather History for Moffett NAS, CA

Change the Weather History Date:

Friday, June 1, 2012

  Actual Average Record
Temperature  
Mean Temperature 68 °F 65 °F  
Max Temperature 77 °F 74 °F 95 °F (1960)
Min Temperature 58 °F 55 °F 43 °F (1955)
Degree Days  
Heating Degree Days 0    
Month to date heating degree days 0  
Since 1 June heating degree days 0  
Since 1 July heating degree days 2024  
Cooling Degree Days 3    
Month to date cooling degree days 3  
Year to date cooling degree days 46  
Since 1 June cooling degree days 3  
Growing Degree Days 18 (Base 50)    
Moisture  
Dew Point 55 °F    
Average Humidity 67    
Maximum Humidity 87    
Minimum Humidity 47    
Precipitation  
Precipitation 0.00 in 0.01 in 0.04 in (1961)
Month to date precipitation 0.00 0.01  
Year to date precipitation 5.43 9.54  
Since 1 July precipitation 7.20 14.59  
Sea Level Pressure  
Sea Level Pressure 29.85 in    
Wind  
Wind Speed 8 mph (North)    
Max Wind Speed 21 mph    
Max Gust Speed 25 mph    
Visibility 10 miles    
Events      
T = Trace of Precipitation, MM = Missing Value Source: NWS Daily Summary

Daily Weather History Graph

Daily Weather History Graph

Search for Another Location

Airport:

Trip Planner

Search our weather history database for the weather conditions in past years. The results will help you decide how hot, cold, wet, or windy it might be!

Date:

Astronomy

Jun. 01, 2012 Rise Set
Actual Time 5:48 AM PDT 8:23 PM PDT
Civil Twilight 5:18 AM PDT 8:54 PM PDT
Nautical Twilight 4:40 AM PDT 9:32 PM PDT
Astronomical Twilight 3:58 AM PDT 10:14 PM PDT
Moon 5:34 PM PDT (6/1) 3:24 AM PDT (6/1)
Length of Visible Light 15h 36m
Length of Day
14h 35m
Waxing Gibbous, 89% of the Moon is Illuminated
Jun 1
Waxing Gibbous
Jun 4
Full
Jun 11
Last Quarter
Jun 19
New
Jun 26
First Quarter

Hourly Weather History & Observations

Time (PDT) Temp. Dew Point Humidity Pressure Visibility Wind Dir Wind Speed Gust Speed Precip Events Conditions
12:56 AM 61.0 °F 55.9 °F 83% 29.88 in 10.0 mi NNW 5.8 mph - N/A   Clear
1:56 AM 60.1 °F 55.0 °F 83% 29.87 in 10.0 mi West 3.5 mph - N/A   Clear
2:56 AM 60.1 °F 55.0 °F 83% 29.86 in 10.0 mi Calm Calm - N/A   Clear
3:56 AM 60.1 °F 55.0 °F 83% 29.86 in 10.0 mi Calm Calm - N/A   Clear
4:56 AM 59.0 °F 54.0 °F 83% 29.85 in 10.0 mi Calm Calm - N/A   Clear
5:56 AM 59.0 °F 55.0 °F 87% 29.86 in 10.0 mi Calm Calm - N/A   Clear
6:56 AM 60.1 °F 55.9 °F 86% 29.87 in 10.0 mi NNE 3.5 mph - N/A   Clear
7:56 AM 61.0 °F 55.0 °F 81% 29.88 in 10.0 mi North 5.8 mph - N/A   Clear
8:56 AM 62.1 °F 55.0 °F 78% 29.88 in 10.0 mi North 4.6 mph - N/A   Clear
9:56 AM 66.0 °F 55.9 °F 70% 29.87 in 10.0 mi NNW 4.6 mph - N/A   Clear
10:56 AM 68.0 °F 55.9 °F 65% 29.87 in 10.0 mi North 5.8 mph - N/A   Clear
11:27 AM 69.8 °F 55.4 °F 60% 29.86 in 10.0 mi North 6.9 mph - N/A   Partly Cloudy
11:56 AM 72.0 °F 55.0 °F 55% 29.86 in 10.0 mi North 6.9 mph - N/A   Clear
12:56 PM 73.0 °F 55.9 °F 55% 29.85 in 10.0 mi North 10.4 mph - N/A   Clear
1:56 PM 75.0 °F 55.9 °F 51% 29.83 in 10.0 mi NNW 9.2 mph - N/A   Clear
2:56 PM 77.0 °F 55.9 °F 48% 29.81 in 10.0 mi NNW 11.5 mph - N/A   Clear
3:56 PM 75.9 °F 57.0 °F 52% 29.81 in 10.0 mi NNW 13.8 mph - N/A   Clear
4:56 PM 72.0 °F 59.0 °F 64% 29.79 in 10.0 mi NNW 16.1 mph - N/A   Clear
5:56 PM 71.1 °F 57.0 °F 61% 29.80 in 10.0 mi NNW 19.6 mph 23.0 mph N/A   Clear
6:56 PM 66.9 °F 55.0 °F 66% 29.81 in 10.0 mi North 18.4 mph - N/A   Clear
7:56 PM 64.0 °F 54.0 °F 70% 29.83 in 10.0 mi North 15.0 mph - N/A   Clear
8:56 PM 62.1 °F 54.0 °F 75% 29.85 in 10.0 mi North 11.5 mph - N/A   Clear
9:56 PM 61.0 °F 54.0 °F 78% 29.87 in 10.0 mi North 6.9 mph - N/A   Clear
10:56 PM 60.1 °F 55.0 °F 83% 29.88 in 10.0 mi NE 4.6 mph - N/A   Clear
11:56 PM 60.1 °F 55.0 °F 83% 29.89 in 10.0 mi North 5.8 mph - N/A   Clear